Location: Messina
(38.1830°N, 15.5670°E)
Time: 03:41:20
(UTC+01:00)

ISS - Visible Passes

Search period start: 23 January 2019 00:00
Search period end: 02 February 2019 00:00
Orbit: 404 x 411 km, 51.6° (Epoch: 23 January)

Date Brightness Start Highest point End Pass type
(mag) Time Alt. Az. Time Alt. Az. Time Alt. Az.
23 Jan -3.3 18:36:55 10° WSW 18:40:07 53° NW 18:41:04 38° NNE visible
24 Jan -3.8 17:45:30 10° SW 17:48:47 77° SE 17:52:03 10° NE visible
24 Jan -1.1 19:23:24 10° WNW 19:24:46 15° NW 19:24:46 15° NW visible
25 Jan -2.0 18:31:19 10° W 18:34:06 25° NNW 18:35:40 17° NNE visible
26 Jan -2.8 17:39:28 10° WSW 17:42:35 40° NW 17:45:45 10° NE visible
26 Jan -0.8 19:18:48 10° NW 19:19:13 11° NNW 19:19:13 11° NNW visible
27 Jan -1.3 18:26:14 10° WNW 18:28:10 15° NNW 18:30:00 10° NNE visible
29 Jan -1.0 18:22:13 10° NNW 18:22:19 10° NNW 18:22:26 10° N visible
